[[{"header":{"parameterUnit":"m.s-1","parameterCategory":1,"la1":30.2991,"la2":30.254,"lo1":-89.0895,"lo2":-89.0444,"dy":0.0017,"dx":0.0017,"nx":28,"ny":28,"refTime":"2025-07-18T09:00:00:Z","depth":0,"parameterNumber":2,"parameterNumberName":"U-component_of_WINDS"},"data":[0,0,0,0,0,0,0,0,0,0,0,0,0,0,0,0,0,0,0,0,0,0,0,0,0,0,0,0,0,0,0,0,0,0,0,0,0,0,0,0,0,0,0,0,0,0,0,0,0,0,0,0,0,0,0,0,0,0,3.6819,3.6821,0,3.6931,3.6933,3.6934,3.6876,3.6873,3.687,3.6867,3.6982,3.6988,3.6994,0,0,0,0,0,0,0,0,0,0,0,0,0,3.6552,3.6557,3.6819,3.6821,3.6822,3.6931,3.6933,3.6934,3.6876,3.6872,3.6869,3.6865,3.698,3.6987,3.6994,0,0,0,0,0,0,0,0,0,0,0,0,0,3.6667,3.6559,3.6819,3.6806,3.6806,3.6931,3.6933,3.6935,3.6877,3.6872,3.6868,3.6864,3.6978,3.6986,3.6995,3.7139,0,0,3.7022,3.7026,0,0,0,0,0,0,0,0,3.666,3.6677,3.6807,3.6807,3.6807,3.6885,3.6881,3.7003,3.6878,3.685,3.6867,3.6861,3.6953,3.6964,3.6995,3.7145,3.715,3.7023,3.7028,3.7032,3.7034,0,0,0,0,0,0,0,3.6652,3.6671,3.6864,3.6809,3.6809,3.6794,3.6805,3.6904,3.6926,3.6852,3.6848,3.6862,3.6953,3.6987,3.6997,3.7151,3.7023,3.703,3.7036,3.7039,3.742,3.7425,0,0,0,0,0,0,3.6645,3.6665,3.686,3.6867,3.6721,3.6802,3.6815,3.6865,3.6924,3.6929,3.6866,3.6859,3.6974,3.6987,3.7001,3.717,3.7032,3.704,3.7045,3.7415,3.7421,3.7426,0,0,0,0,0,0,3.664,3.6663,3.6855,3.6765,3.6788,3.6812,3.6868,3.6869,3.6903,3.6935,3.6938,3.6896,3.6971,3.6989,3.7104,3.7173,3.7044,3.7052,3.741,3.7417,3.7424,3.7511,0,0,0,0,0,0,3.6632,3.6662,3.6717,3.6767,3.6793,3.6958,3.6872,3.6875,3.6918,3.691,3.6964,3.6969,3.6969,3.7091,3.7113,3.7183,3.7059,3.7403,3.7413,3.7421,3.7502,3.7521,3.7536,0,0,0,0,0,3.6623,3.6739,3.6721,3.6744,3.6864,3.6962,3.6977,3.6974,3.6924,3.6979,3.6999,3.6967,3.7163,3.7104,3.7128,3.7201,3.7399,3.741,3.7421,3.7495,3.7517,3.7536,0,0,0,0,0,0,3.6698,3.6745,3.6725,3.6861,3.6907,3.6952,3.7022,3.6999,3.7061,3.7051,3.7045,3.7057,3.7176,3.7201,3.7134,3.7341,3.7273,3.7289,3.7321,3.7342,3.7359,3.7349,3.7066,0,0,0,0,0,3.673,3.6806,3.6843,3.6959,3.6983,3.6999,3.7041,3.7035,3.7083,3.7103,3.7131,3.718,3.7251,3.7299,3.7367,3.7506,3.7515,3.7568,3.7585,3.7599,3.7612,3.7683,3.7706,3.7462,3.7462,3.7462,0,0,3.6797,3.6832,3.6881,3.6975,3.701,3.7087,3.7016,3.7102,3.7159,3.7116,3.7225,3.7248,3.7301,3.7428,3.7486,3.7452,3.7682,3.7613,3.7624,3.763,3.7697,3.772,3.7741,3.747,3.7468,3.7467,0,0,3.6958,3.6994,3.7092,3.7129,3.7183,3.7192,3.7215,3.7263,3.7276,3.7386,3.7354,3.7422,3.7547,3.7584,3.762,3.7792,3.7764,3.7815,3.7903,3.7972,3.7991,3.8008,3.8066,3.8087,3.7829,3.7829,3.7829,0,3.7035,3.7151,3.7146,3.7233,3.7273,3.7238,3.7335,3.7371,3.7446,3.7474,3.7435,3.7588,3.7622,3.7755,3.7797,3.7828,3.7853,3.7808,3.7989,3.8006,3.8022,3.8077,3.8099,3.7834,3.7834,3.7833,3.7833,0,3.724,3.7321,3.7393,3.7464,3.7513,3.7606,3.7613,3.7663,3.7652,3.7665,3.7775,3.7814,3.7887,3.7919,3.791,3.805,3.8027,3.799,3.792,3.8051,3.8102,3.8123,3.7842,3.784,3.7839,3.7837,0,0,3.7451,3.7516,3.7542,3.7572,3.7628,3.769,3.778,3.7851,3.7892,3.7944,3.8017,3.8123,3.8087,3.8127,3.8122,3.8184,3.8312,3.8138,3.8139,3.8165,3.8464,3.8489,3.8514,3.8295,3.8299,3.8302,3.8458,0,3.7613,3.7769,3.7766,3.791,3.7983,3.7949,3.8026,3.8068,3.8082,3.8145,3.816,3.8233,3.8183,3.8206,3.8266,3.8284,3.8372,3.8273,3.836,3.8363,3.8344,3.8541,3.8569,3.8715,3.8479,3.8482,3.8485,0,3.7823,3.7879,3.8031,3.8072,3.8103,3.8173,3.8235,3.8297,3.8343,3.8348,3.8392,3.8376,3.8465,3.8395,3.8516,3.8449,3.8484,3.8498,3.8504,3.8509,3.843,3.8548,3.8762,3.8782,3.8517,3.8514,3.8512,0,3.7956,3.8071,3.8175,3.8202,3.8255,3.8304,3.8328,3.837,3.8412,3.8467,3.8493,3.8558,3.8593,3.8644,3.8645,3.8594,3.8766,3.8696,3.877,3.877,3.8805,3.8803,3.9023,3.8835,3.8834,3.8834,3.8833,0,3.8135,3.8228,3.8235,3.8299,3.8401,3.8396,3.8497,3.8517,3.8554,3.8619,3.8595,3.8657,3.8657,3.872,3.8722,3.8819,3.8836,3.8841,3.884,3.8841,3.884,3.8862,3.885,3.884,3.8838,3.8837,3.8836,0,3.8301,3.831,3.842,3.846,3.8473,3.8546,3.8579,3.8639,3.865,3.8733,3.8752,3.877,3.8842,3.8849,3.8934,3.8934,3.9051,3.9041,3.9035,3.9032,3.9103,3.9095,3.9343,3.9374,3.9169,3.9171,3.9172,0,3.8413,3.8483,3.853,3.8572,3.8598,3.8667,3.8708,3.8706,3.875,3.8805,3.8858,3.8927,3.8983,3.9099,3.9119,3.9183,3.9171,3.9254,3.9181,3.9178,3.9168,3.9162,3.9167,3.9267,3.9269,3.9271,3.9273,0,3.8609,3.8609,3.867,3.8732,3.8782,3.8831,3.8876,3.8912,3.8914,3.8965,3.9038,3.9081,3.9165,3.9234,3.9295,3.9319,3.9296,3.9296,3.9315,3.9316,3.9308,3.9309,3.9069,3.929,3.9288,3.9287,3.9286,3.9285,3.8749,3.8808,3.8849,3.8916,3.895,3.8992,3.9049,3.9066,3.9127,3.9195,3.919,3.927,3.9311,3.9391,3.9419,3.948,3.9453,3.9482,3.9489,3.9495,3.9501,3.9301,3.9492,3.9492,3.9492,3.9491,3.9491,0,3.894,3.8964,3.9027,3.909,3.9142,3.9116,3.9164,3.9209,3.9279,3.932,3.9374,3.9455,3.9521,3.9545,3.9608,3.9652,3.9643,3.9669,3.9664,3.9668,3.9524,3.9499,3.9675,3.9675,3.9675,3.9675,3.9675,3.9675,3.9046,3.9143,3.9148,3.926,3.9284,3.9361,3.939,3.9428,3.9459,3.9551,3.9605,3.962,3.9653,3.9718,3.9776,3.9781,3.9804,3.9834,3.9834,3.9698,3.9679,3.9661,3.9637,3.984,3.984,3.9972,3.9974,3.9975]},{"header":{"parameterUnit":"m.s-1","parameterCategory":1,"la1":30.2991,"la2":30.254,"lo1":-89.0895,"lo2":-89.0444,"dy":0.0017,"dx":0.0017,"nx":28,"ny":28,"refTime":"2025-07-18T09:00:00:Z","depth":0,"parameterNumber":3,"parameterNumberName":"V-component_of_WINDS"},"data":[0,0,0,0,0,0,0,0,0,0,0,0,0,0,0,0,0,0,0,0,0,0,0,0,0,0,0,0,0,0,0,0,0,0,0,0,0,0,0,0,0,0,0,0,0,0,0,0,0,0,0,0,0,0,0,0,0,0,1.6635,1.6635,0,1.6702,1.6702,1.6703,1.6674,1.6672,1.6671,1.6669,1.6739,1.6742,1.6746,0,0,0,0,0,0,0,0,0,0,0,0,0,1.648,1.6483,1.6635,1.6635,1.6636,1.6702,1.6702,1.6703,1.6674,1.6672,1.667,1.6668,1.6738,1.6742,1.6746,0,0,0,0,0,0,0,0,0,0,0,0,0,1.6547,1.6484,1.6634,1.663,1.663,1.6701,1.6702,1.6704,1.6675,1.6672,1.667,1.6668,1.6736,1.6741,1.6746,1.6827,0,0,1.6762,1.6764,0,0,0,0,0,0,0,0,1.6544,1.6553,1.6629,1.663,1.663,1.6677,1.6674,1.6745,1.6675,1.6658,1.6669,1.6666,1.672,1.6727,1.6745,1.683,1.6833,1.6762,1.6765,1.6768,1.6769,0,0,0,0,0,0,0,1.6539,1.655,1.6661,1.6631,1.6631,1.6624,1.663,1.6687,1.6702,1.6659,1.6657,1.6665,1.672,1.674,1.6746,1.6834,1.6762,1.6767,1.677,1.6772,1.6986,1.6988,0,0,0,0,0,0,1.6534,1.6546,1.6659,1.6663,1.658,1.6628,1.6636,1.6665,1.6701,1.6705,1.6667,1.6664,1.6732,1.674,1.6748,1.6843,1.6768,1.6772,1.6775,1.6983,1.6986,1.6989,0,0,0,0,0,0,1.6531,1.6545,1.6656,1.6604,1.6618,1.6634,1.6666,1.6667,1.6687,1.6708,1.671,1.6685,1.6731,1.6741,1.6807,1.6845,1.6775,1.6779,1.698,1.6984,1.6988,1.7034,0,0,0,0,0,0,1.6527,1.6544,1.6575,1.6605,1.6621,1.6714,1.6668,1.667,1.6695,1.6691,1.6725,1.6728,1.673,1.6799,1.6812,1.6851,1.6783,1.6977,1.6982,1.6987,1.7029,1.7039,1.7048,0,0,0,0,0,1.6521,1.6586,1.6577,1.659,1.666,1.6717,1.6725,1.6726,1.6699,1.673,1.6743,1.6727,1.6839,1.6806,1.682,1.6861,1.6974,1.698,1.6986,1.7025,1.7037,1.7048,0,0,0,0,0,0,1.6561,1.659,1.658,1.6657,1.6684,1.6711,1.6751,1.6739,1.6775,1.677,1.6769,1.6777,1.6844,1.6859,1.6823,1.6939,1.6902,1.6911,1.6927,1.6939,1.6948,1.6943,1.6787,0,0,0,0,0,1.6579,1.6622,1.6645,1.6711,1.6725,1.6735,1.676,1.6758,1.6786,1.6798,1.6816,1.6845,1.6886,1.6913,1.6953,1.7031,1.7037,1.7066,1.7075,1.7082,1.709,1.713,1.7143,1.7009,1.7009,1.7009,0,0,1.6616,1.6637,1.6665,1.6719,1.674,1.6784,1.6746,1.6795,1.6827,1.6806,1.6868,1.6882,1.6914,1.6985,1.7018,1.7,1.7128,1.709,1.7096,1.71,1.7138,1.715,1.7162,1.7013,1.7012,1.7011,0,0,1.6706,1.6727,1.6782,1.6804,1.6835,1.6842,1.6855,1.6884,1.6892,1.6954,1.6938,1.6976,1.7048,1.707,1.7091,1.7186,1.7172,1.7199,1.7247,1.7286,1.7297,1.7306,1.7338,1.735,1.7207,1.7207,1.7207,0,1.6748,1.6814,1.6813,1.6862,1.6886,1.6867,1.6922,1.6943,1.6986,1.7003,1.6982,1.7069,1.709,1.7165,1.7188,1.7206,1.722,1.7195,1.7295,1.7305,1.7313,1.7344,1.7356,1.721,1.7209,1.7209,1.7209,0,1.6864,1.691,1.695,1.6991,1.7019,1.7072,1.7077,1.7105,1.71,1.7108,1.717,1.7193,1.7236,1.7253,1.725,1.7328,1.7315,1.7295,1.7258,1.7329,1.7358,1.737,1.7214,1.7213,1.7212,1.7211,0,0,1.6982,1.7019,1.7034,1.7051,1.7084,1.7119,1.717,1.721,1.7234,1.7264,1.7305,1.7365,1.7345,1.7369,1.7367,1.7401,1.7472,1.7376,1.7377,1.7392,1.7557,1.7571,1.7585,1.7463,1.7465,1.7467,1.7554,0,1.7073,1.7162,1.716,1.7242,1.7283,1.7264,1.7308,1.7332,1.734,1.7376,1.7385,1.7426,1.7399,1.7412,1.7445,1.7457,1.7505,1.745,1.75,1.7502,1.7492,1.7601,1.7617,1.7698,1.7565,1.7567,1.7569,0,1.7192,1.7224,1.731,1.7333,1.735,1.739,1.7425,1.746,1.7486,1.7489,1.7514,1.7506,1.7556,1.7517,1.7585,1.7547,1.7567,1.7576,1.7579,1.7583,1.754,1.7607,1.7724,1.7736,1.7587,1.7585,1.7584,0,1.7268,1.7333,1.7391,1.7407,1.7437,1.7464,1.7478,1.7501,1.7525,1.7556,1.7571,1.7608,1.7628,1.7656,1.7657,1.7629,1.7725,1.7686,1.7728,1.7728,1.7749,1.7748,1.787,1.7764,1.7763,1.7763,1.7763,0,1.737,1.7422,1.7425,1.7462,1.7519,1.7516,1.7573,1.7584,1.7605,1.7642,1.7628,1.7663,1.7663,1.7698,1.77,1.7754,1.7764,1.7767,1.7767,1.7768,1.7767,1.7781,1.7775,1.7766,1.7766,1.7765,1.7765,0,1.7464,1.7469,1.7531,1.7553,1.756,1.7601,1.762,1.7653,1.7659,1.7706,1.7717,1.7726,1.7767,1.7771,1.7819,1.7819,1.7885,1.7879,1.7876,1.7874,1.7915,1.7911,1.805,1.8067,1.7951,1.7952,1.7953,0,1.7529,1.7568,1.7594,1.7617,1.7632,1.767,1.7693,1.7691,1.7716,1.7747,1.7777,1.7815,1.7847,1.7912,1.7923,1.7959,1.7953,1.7999,1.7958,1.7957,1.7951,1.7949,1.7952,1.8007,1.8008,1.8009,1.801,0,1.7641,1.7641,1.7675,1.7709,1.7737,1.7764,1.7789,1.7809,1.781,1.7838,1.7879,1.7903,1.795,1.7988,1.8022,1.8036,1.8023,1.8022,1.8034,1.8035,1.8031,1.8032,1.7896,1.8019,1.8019,1.8018,1.8017,1.8017,1.7722,1.7755,1.7777,1.7815,1.7833,1.7856,1.7888,1.7897,1.7931,1.7969,1.7966,1.801,1.8033,1.8077,1.8093,1.8127,1.8111,1.8128,1.8132,1.8136,1.8139,1.8026,1.8133,1.8133,1.8133,1.8133,1.8132,0,1.7832,1.7845,1.788,1.7914,1.7943,1.7928,1.7954,1.7979,1.8018,1.804,1.807,1.8116,1.8152,1.8165,1.82,1.8225,1.8219,1.8234,1.8232,1.8234,1.8152,1.8138,1.8237,1.8237,1.8237,1.8237,1.8237,1.8237,1.7893,1.7948,1.795,1.8013,1.8025,1.8068,1.8084,1.8105,1.8122,1.8173,1.8203,1.821,1.8228,1.8264,1.8296,1.8299,1.8312,1.8328,1.8328,1.8251,1.8241,1.8231,1.8217,1.8332,1.8332,1.8408,1.8408,1.8409]}]]